TNS 0-2 (42914 NORAD) Tracking and Keplerian Element Data

This shows tracking and keplerian element data for the satellite.

Feedback or suggestion? Click here.




ElementValue
Catalog42914
NameTNS 0-2
Epoch Orbit12203
Epoch Day276.49118341
Epoch Year2019
RAAN86.4399
Inclination51.6252
Eccentricity0.0007352
Argument of Perigee283.6822
Mean Anonmoly76.3373
Mean Motion16.08773107
Decay Rate0.0046867
L11 42914U 98067ND 19276.49118341 .00468670 11977-3 52370-3 0 9995
L22 42914 51.6252 86.4399 0007352 283.6822 76.3373 16.08773107122037



Live tracking and technical data element details for TNS 0-2 (NORAD 42914). TNS 0-2 can be tracked NOW for your location showing map with azimuth and elevation plus other details from your city location.







IsCatalogInMostPopularTable: catalog: 42914, numindb: 556
Update: records affected: 1



GetName: 42914 TNS 0-2

Hit Count: updated at: Mon, 28 Nov 2022 05:08:26 GMT